Date,TemperatureHighF,TemperatureAvgF,TemperatureLowF,DewpointHighF,DewpointAvgF,DewpointLowF,HumidityHigh,HumidityAvg,HumidityLow,PressureMaxIn,PressureMinIn,WindSpeedMaxMPH,WindSpeedAvgMPH,GustSpeedMaxMPH,PrecipitationSumIn
2013-1-1,33,24,15,31,19,11,93,84,76,29.26,29.06,12,7,19,0.00
2013-1-2,28,23,18,22,19,14,92,84,79,29.41,29.20,9,5,12,0.00
2013-1-3,30,22,15,29,19,12,94,90,87,29.41,29.16,12,6,16,0.00
2013-1-4,35,32,30,31,28,26,88,83,80,29.23,29.06,15,10,21,0.01
2013-1-5,38,33,30,31,28,25,87,82,74,29.49,29.23,11,3,22,0.01
2013-1-6,37,35,32,35,33,26,95,91,78,29.29,29.07,8,4,10,0.03
2013-1-7,35,30,25,33,26,22,93,85,73,29.60,29.29,10,4,14,0.00
2013-1-8,40,34,30,33,28,24,89,79,72,29.51,29.35,9,4,10,0.00
2013-1-9,48,39,32,39,32,24,84,76,67,29.52,29.12,14,7,23,0.00
2013-1-10,46,39,34,35,32,29,88,75,61,29.78,29.53,11,3,21,0.00
2013-1-11,50,43,35,47,38,29,92,82,68,29.60,29.05,19,9,26,0.08
2013-1-12,60,52,45,53,49,43,94,88,76,29.16,29.10,11,4,14,0.00
2013-1-13,68,57,49,60,53,48,98,88,75,29.13,28.88,16,5,24,0.54
2013-1-14,53,35,28,52,31,24,96,84,77,29.57,28.90,17,6,23,0.03
2013-1-15,35,30,28,27,24,23,86,79,64,29.60,29.37,5,1,6,0.00
2013-1-16,41,34,28,33,28,24,87,81,73,29.38,28.97,11,4,15,0.00
2013-1-17,35,25,16,31,20,13,92,81,73,29.39,29.02,13,6,19,0.00
2013-1-18,34,23,16,23,17,14,94,79,62,29.65,29.22,11,4,14,0.04
2013-1-19,49,42,34,33,29,22,66,60,50,29.24,28.75,10,6,25,0.01
2013-1-20,49,30,17,38,24,15,94,79,51,29.27,28.62,20,12,30,0.02
2013-1-21,24,18,12,20,15,7,92,88,77,29.26,29.07,9,4,18,0.00
2013-1-22,15,10,7,7,5,2,89,79,66,29.40,29.11,13,7,17,0.00
2013-1-23,21,12,7,19,10,4,93,90,86,29.45,29.32,8,4,14,0.00
2013-1-24,15,12,9,14,10,7,92,91,89,29.75,29.30,13,5,14,0.00
2013-1-25,15,12,9,13,10,6,93,91,90,29.73,29.31,9,4,11,0.00
2013-1-26,28,18,8,25,16,6,100,90,83,29.61,29.31,6,1,8,0.12
2013-1-27,29,23,18,25,20,16,94,87,78,29.77,29.56,8,2,12,0.07
2013-1-28,41,33,24,41,32,19,99,93,79,29.55,29.04,12,4,16,0.18
2013-1-29,58,42,32,56,41,32,100,99,93,29.24,28.88,12,4,24,0.48
2013-1-30,65,59,53,58,54,50,96,83,70,28.88,28.18,18,8,25,0.25
2013-1-31,54,30,23,53,25,16,95,81,62,28.89,28.17,19,12,36,0.15